MAS377 WIII-WMKK

Flight info

Callsign MAS377
Flight time N/A
Altitude 40000
Route DOLTA2C/25L DOLTA A585 PKU/N0466F390 N633 SALAX SALAX3J
Aircraft A339/H-SADE1E2E3GHIJ3J5M1P2RWXY/LB2D1

Departure

Time 2026-05-04 13:18
Airport Soekarno-Hatta International Airport (WIII)

Arrival

Time N/A
Airport Kuala Lumpur International Airport (WMKK)
Time Latitude Longitude Altitude Speed Heading
2026-05-04 13:17 -6.14835 106.62814 1212 ft 196 kts 248°
2026-05-04 13:18 -6.15342 106.61484 1466 ft 221 kts 247°
2026-05-04 13:18 -6.15970 106.60012 1927 ft 235 kts 245°
2026-05-04 13:18 -6.16669 106.58424 2491 ft 261 kts 247°
2026-05-04 13:18 -6.17332 106.56653 3174 ft 273 kts 250°
2026-05-04 13:19 -6.17992 106.54884 4187 ft 272 kts 247°
2026-05-04 13:19 -6.18749 106.53115 4866 ft 278 kts 245°
2026-05-04 13:19 -6.19496 106.51313 5609 ft 281 kts 248°
2026-05-04 13:19 -6.20180 106.49461 6301 ft 284 kts 249°
2026-05-04 13:20 -6.20913 106.47604 6978 ft 286 kts 246°
2026-05-04 13:20 -6.21680 106.45748 7639 ft 289 kts 252°
2026-05-04 13:20 -6.21832 106.43743 8233 ft 290 kts 287°
2026-05-04 13:20 -6.20939 106.41971 8982 ft 287 kts 307°
2026-05-04 13:21 -6.19401 106.40602 9118 ft 306 kts 338°
2026-05-04 13:21 -6.17431 106.40079 10232 ft 279 kts 351°
2026-05-04 13:21 -6.15492 106.39606 10549 ft 297 kts 341°
2026-05-04 13:21 -6.13537 106.38828 10751 ft 316 kts 339°
2026-05-04 13:22 -6.11350 106.38120 10903 ft 337 kts 347°
2026-05-04 13:22 -6.08993 106.37604 11072 ft 357 kts 348°
2026-05-04 13:22 -6.06561 106.36912 11527 ft 365 kts 341°
2026-05-04 13:22 -6.04186 106.36040 12330 ft 365 kts 342°
2026-05-04 13:23 -6.01765 106.35310 12884 ft 370 kts 347°
2026-05-04 13:23 -5.99253 106.34700 13544 ft 373 kts 347°
2026-05-04 13:23 -5.96747 106.33953 14123 ft 378 kts 342°
2026-05-04 13:23 -5.88363 106.31460 15970 ft 388 kts 345°
2026-05-04 13:24 -5.77831 106.28314 18252 ft 402 kts 345°
2026-05-04 13:24 -5.67566 106.23488 20211 ft 417 kts 329°
2026-05-04 13:24 -5.57191 106.17633 20908 ft 429 kts 330°
2026-05-04 13:25 -5.37653 106.06646 21410 ft 429 kts 331°
2026-05-04 13:25 -5.35072 106.05135 22093 ft 430 kts 332°
2026-05-04 13:25 -5.32438 106.03694 22775 ft 433 kts 334°
2026-05-04 13:25 -5.29774 106.02233 23360 ft 439 kts 332°
2026-05-04 13:26 -5.27119 106.00689 23902 ft 443 kts 331°
2026-05-04 13:26 -5.24438 105.99141 24462 ft 445 kts 333°
2026-05-04 13:26 -5.21714 105.97645 25009 ft 448 kts 333°
2026-05-04 13:26 -5.18972 105.96124 25545 ft 451 kts 332°
2026-05-04 13:27 -5.16247 105.94546 26067 ft 454 kts 332°
2026-05-04 13:27 -5.10176 105.91141 27214 ft 460 kts 333°
2026-05-04 13:27 -5.05709 105.88561 27996 ft 467 kts 331°
2026-05-04 13:27 -5.02854 105.86911 28044 ft 481 kts 332°
2026-05-04 13:28 -4.99920 105.85280 28051 ft 496 kts 333°
2026-05-04 13:28 -4.92922 105.81259 29330 ft 499 kts 332°
2026-05-04 13:28 -4.89919 105.79557 30177 ft 494 kts 332°
2026-05-04 13:28 -4.85239 105.76932 31055 ft 492 kts 332°
2026-05-04 13:29 -4.73374 105.70173 33314 ft 487 kts 331°
2026-05-04 13:29 -4.61682 105.63517 35194 ft 481 kts 331°
2026-05-04 13:29 -4.50113 105.56932 36828 ft 476 kts 331°
2026-05-04 13:29 -4.38645 105.50406 38224 ft 472 kts 331°
2026-05-04 13:30 -4.27254 105.43927 39248 ft 470 kts 330°
2026-05-04 13:30 -4.17495 105.38401 39931 ft 469 kts 331°
2026-05-04 13:30 -4.11797 105.35118 39909 ft 473 kts 332°
2026-05-04 13:31 -4.06058 105.31902 39904 ft 472 kts 330°
2026-05-04 13:31 -4.00358 105.28623 39901 ft 472 kts 332°
2026-05-04 13:32 -3.94624 105.25406 39896 ft 473 kts 330°
2026-05-04 13:32 -3.88919 105.22135 39896 ft 473 kts 332°
2026-05-04 13:33 -3.83162 105.18945 39898 ft 473 kts 331°
2026-05-04 13:33 -3.77447 105.15677 39903 ft 473 kts 332°
2026-05-04 13:34 -3.71727 105.12506 39900 ft 473 kts 331°
2026-05-04 13:34 -3.66017 105.09244 39902 ft 472 kts 333°
2026-05-04 13:35 -3.57434 105.04402 39894 ft 472 kts 331°
2026-05-04 13:36 -3.51680 105.01236 39893 ft 472 kts 332°
2026-05-04 13:36 -3.45990 104.97961 39894 ft 472 kts 331°
2026-05-04 13:37 -3.36760 104.92809 39903 ft 473 kts 330°
2026-05-04 13:37 -3.25295 104.86358 39902 ft 473 kts 330°
2026-05-04 13:38 -3.11110 104.78340 39891 ft 471 kts 332°
2026-05-04 13:38 -2.88259 104.65449 39891 ft 471 kts 328°
2026-05-04 13:39 -2.72525 104.50303 39891 ft 473 kts 314°
2026-05-04 13:39 -2.53586 104.31875 39898 ft 476 kts 314°
2026-05-04 13:40 -2.31636 104.10376 39904 ft 476 kts 318°
2026-05-04 13:40 -2.15635 103.94970 39918 ft 477 kts 313°
2026-05-04 13:41 -1.96649 103.76512 39924 ft 475 kts 314°
2026-05-04 13:41 -1.77796 103.58194 39920 ft 477 kts 314°
2026-05-04 13:42 -1.49202 103.30402 39926 ft 479 kts 315°
2026-05-04 13:42 -1.30100 103.11833 39925 ft 479 kts 315°
2026-05-04 13:43 -1.11037 102.93299 39930 ft 478 kts 316°
2026-05-04 13:43 -0.91919 102.74738 39927 ft 479 kts 316°
2026-05-04 13:44 -0.72832 102.56212 39918 ft 478 kts 317°
2026-05-04 13:44 -0.53780 102.37714 39905 ft 478 kts 318°
2026-05-04 13:45 -0.34670 102.19158 39897 ft 479 kts 318°
2026-05-04 13:45 -0.16064 102.01045 39900 ft 479 kts 319°
2026-05-04 13:46 -0.06516 101.91768 39888 ft 479 kts 319°
2026-05-04 13:46 0.03036 101.82489 39886 ft 479 kts 319°
2026-05-04 13:47 0.12585 101.73215 39878 ft 478 kts 319°
2026-05-04 13:47 0.22129 101.63945 39876 ft 479 kts 319°
2026-05-04 13:48 0.31681 101.54671 39881 ft 479 kts 319°
2026-05-04 13:48 0.41480 101.45725 39950 ft 472 kts 339°
2026-05-04 13:49 0.47723 101.44429 40074 ft 466 kts
2026-05-04 13:49 0.54263 101.44991 39950 ft 475 kts
2026-05-04 13:49 0.67317 101.45888 39467 ft 466 kts
2026-05-04 13:50 0.73905 101.46270 37712 ft 480 kts
2026-05-04 13:50 0.80576 101.46790 36300 ft 481 kts
2026-05-04 13:50 0.87034 101.47173 34960 ft 484 kts
2026-05-04 13:50 0.90406 101.47398 34279 ft 486 kts
2026-05-04 13:51 0.93781 101.47684 33572 ft 487 kts
2026-05-04 13:51 0.95574 101.47820 33160 ft 488 kts
2026-05-04 13:51 0.97271 101.47926 32755 ft 489 kts
2026-05-04 13:51 0.98972 101.48017 32343 ft 490 kts
2026-05-04 13:52 1.02383 101.48213 31540 ft 492 kts
2026-05-04 13:52 1.04091 101.48338 31146 ft 493 kts
2026-05-04 13:52 1.05801 101.48478 30754 ft 493 kts
2026-05-04 13:53 1.07514 101.48619 30352 ft 494 kts
2026-05-04 13:53 1.09231 101.48747 29940 ft 496 kts
2026-05-04 13:53 1.10955 101.48856 29454 ft 497 kts
2026-05-04 13:54 1.14391 101.49049 28493 ft 499 kts
2026-05-04 13:54 1.16124 101.49158 28004 ft 500 kts
2026-05-04 13:54 1.19602 101.49422 27196 ft 499 kts
2026-05-04 13:55 1.21317 101.49557 27179 ft 491 kts
2026-05-04 13:55 1.24667 101.49783 27163 ft 474 kts
2026-05-04 13:55 1.26300 101.49877 27158 ft 466 kts
2026-05-04 13:56 1.27906 101.49972 27156 ft 458 kts
2026-05-04 13:56 1.29484 101.50076 27157 ft 451 kts
2026-05-04 13:56 1.32563 101.50310 27151 ft 436 kts
2026-05-04 13:57 1.34064 101.50425 27141 ft 429 kts
2026-05-04 13:57 1.35525 101.50526 27098 ft 424 kts
2026-05-04 13:58 1.39929 101.50798 26452 ft 422 kts
2026-05-04 13:58 1.42850 101.51007 26088 ft 419 kts
2026-05-04 13:58 1.44302 101.51117 25916 ft 418 kts
2026-05-04 13:59 1.45751 101.51222 25722 ft 417 kts
2026-05-04 13:59 1.47199 101.51319 25550 ft 416 kts
2026-05-04 13:59 1.50082 101.51496 25192 ft 414 kts
2026-05-04 14:00 1.51517 101.51590 25014 ft 413 kts
2026-05-04 14:00 1.54377 101.51800 24676 ft 411 kts
2026-05-04 14:00 1.55802 101.51906 24507 ft 410 kts
2026-05-04 14:01 1.57224 101.52005 24336 ft 410 kts
2026-05-04 14:01 1.58644 101.52096 24184 ft 408 kts
2026-05-04 14:01 1.61474 101.52272 23853 ft 407 kts
2026-05-04 14:02 1.62884 101.52369 23699 ft 406 kts
2026-05-04 14:02 1.64291 101.52473 23547 ft 405 kts
2026-05-04 14:02 1.65694 101.52579 23370 ft 404 kts
2026-05-04 14:02 1.67096 101.52679 23174 ft 403 kts
2026-05-04 14:03 1.68492 101.52771 23007 ft 402 kts
2026-05-04 14:03 1.69887 101.52857 22839 ft 401 kts
2026-05-04 14:03 1.71275 101.52944 22672 ft 399 kts
2026-05-04 14:03 1.72659 101.53036 22497 ft 398 kts
2026-05-04 14:04 1.75413 101.53240 22151 ft 396 kts
2026-05-04 14:04 1.76785 101.53340 21992 ft 395 kts
2026-05-04 14:04 1.78134 101.53431 21856 ft 393 kts
2026-05-04 14:05 1.80821 101.53597 21884 ft 384 kts
2026-05-04 14:05 1.82174 101.53687 21900 ft 386 kts
2026-05-04 14:05 1.83507 101.53783 21892 ft 392 kts
2026-05-04 14:06 1.84871 101.53886 21903 ft 393 kts
2026-05-04 14:06 1.86237 101.53987 21889 ft 394 kts
2026-05-04 14:06 1.87605 101.54080 21904 ft 394 kts
2026-05-04 14:06 1.88974 101.54166 21888 ft 394 kts
2026-05-04 14:07 1.90337 101.54254 21899 ft 392 kts
2026-05-04 14:07 1.91681 101.54465 21834 ft 391 kts 18°
2026-05-04 14:07 1.92946 101.54934 21837 ft 386 kts 32°
2026-05-04 14:07 1.94044 101.55680 22011 ft 380 kts 45°
2026-05-04 14:08 1.94988 101.56605 22174 ft 382 kts 46°
2026-05-04 14:08 1.96000 101.57495 22107 ft 394 kts 37°
2026-05-04 14:08 1.97181 101.58209 21938 ft 399 kts 24°
2026-05-04 14:08 1.98487 101.58656 21925 ft 395 kts 14°
2026-05-04 14:09 2.01168 101.59010 22027 ft 391 kts
2026-05-04 14:09 2.02534 101.58998 21964 ft 394 kts 358°
2026-05-04 14:10 2.05272 101.58726 21849 ft 397 kts 354°
2026-05-04 14:10 2.06631 101.58528 21931 ft 393 kts 353°
2026-05-04 14:10 2.07979 101.58313 21939 ft 394 kts 352°
2026-05-04 14:10 2.09341 101.58084 21854 ft 398 kts 352°
2026-05-04 14:11 2.10698 101.57845 21936 ft 394 kts 351°
2026-05-04 14:11 2.13387 101.57353 21856 ft 397 kts 351°
2026-05-04 14:11 2.14739 101.57101 21941 ft 393 kts 351°
2026-05-04 14:12 2.16082 101.56849 21953 ft 390 kts 351°
2026-05-04 14:12 2.17419 101.56662 21719 ft 388 kts 358°
2026-05-04 14:12 2.20104 101.56997 20872 ft 394 kts 25°
2026-05-04 14:13 2.21287 101.57633 20800 ft 385 kts 40°
2026-05-04 14:13 2.22248 101.58536 20990 ft 369 kts 52°
2026-05-04 14:13 2.22977 101.59571 20979 ft 362 kts 60°
2026-05-04 14:13 2.23528 101.60711 20503 ft 368 kts 72°
2026-05-04 14:14 2.23838 101.61967 19985 ft 378 kts 86°
2026-05-04 14:14 2.23470 101.64505 19906 ft 364 kts 115°
2026-05-04 14:14 2.22860 101.65588 20094 ft 354 kts 123°
2026-05-04 14:15 2.21270 101.67492 19281 ft 368 kts 133°
2026-05-04 14:15 2.19461 101.69337 18982 ft 365 kts 132°
2026-05-04 14:16 2.17800 101.71206 18531 ft 359 kts 128°
2026-05-04 14:16 2.17018 101.72191 18041 ft 364 kts 126°
2026-05-04 14:17 2.15623 101.74264 17687 ft 351 kts 120°
2026-05-04 14:17 2.15016 101.75311 17375 ft 347 kts 118°
2026-05-04 14:17 2.14014 101.77559 16119 ft 362 kts 106°
2026-05-04 14:18 2.13694 101.78769 15928 ft 355 kts 101°
2026-05-04 14:18 2.13247 101.81075 15954 ft 328 kts 101°
2026-05-04 14:19 2.12656 101.83371 14260 ft 360 kts 109°
2026-05-04 14:19 2.12214 101.84539 14076 ft 353 kts 112°
2026-05-04 14:19 2.11775 101.85632 14418 ft 325 kts 110°
2026-05-04 14:19 2.11408 101.86649 14613 ft 308 kts 108°
2026-05-04 14:20 2.11102 101.87668 14380 ft 306 kts 104°
2026-05-04 14:20 2.10852 101.88717 14037 ft 306 kts 101°
2026-05-04 14:20 2.10639 101.89746 13858 ft 296 kts 102°
2026-05-04 14:21 2.10133 101.91658 13406 ft 276 kts 109°
2026-05-04 14:21 2.09807 101.92564 12839 ft 279 kts 111°
2026-05-04 14:21 2.09452 101.93481 12074 ft 288 kts 110°
2026-05-04 14:21 2.09107 101.94434 11457 ft 293 kts 106°
2026-05-04 14:22 2.08830 101.95383 11195 ft 282 kts 102°
2026-05-04 14:22 2.08617 101.96320 11088 ft 265 kts 101°
2026-05-04 14:22 2.08426 101.97203 10618 ft 264 kts 103°
2026-05-04 14:22 2.08195 101.98120 9700 ft 283 kts 107°
2026-05-04 14:23 2.07507 101.99969 8934 ft 266 kts 112°
2026-05-04 14:23 2.07168 102.00800 8750 ft 254 kts 110°
2026-05-04 14:23 2.06870 102.01646 7924 ft 265 kts 105°
2026-05-04 14:24 2.06630 102.02578 6994 ft 287 kts 101°
2026-05-04 14:24 2.06440 102.03579 6302 ft 296 kts 99°
2026-05-04 14:24 2.06247 102.04590 5758 ft 296 kts 102°
2026-05-04 14:24 2.05994 102.05591 5141 ft 299 kts 107°
2026-05-04 14:25 2.05655 102.06586 4518 ft 305 kts 112°
2026-05-04 14:25 2.04889 102.08415 4866 ft 261 kts 111°
2026-05-04 14:25 2.04576 102.09279 4762 ft 271 kts 107°
2026-05-04 14:26 2.04319 102.10205 4351 ft 281 kts 102°
2026-05-04 14:26 2.04130 102.11150 4323 ft 270 kts 99°
2026-05-04 14:26 2.03991 102.12042 4558 ft 252 kts 94°
2026-05-04 14:26 2.03983 102.12934 4641 ft 264 kts 82°
2026-05-04 14:27 2.04190 102.13827 4491 ft 264 kts 64°
2026-05-04 14:27 2.04653 102.14600 4359 ft 256 kts 44°
2026-05-04 14:27 2.05294 102.15180 4447 ft 244 kts 33°
2026-05-04 14:27 2.05755 102.15497 4671 ft 243 kts 32°
2026-05-04 14:28 2.06478 102.15973 4815 ft 256 kts 33°
2026-05-04 14:28 2.07220 102.16492 4551 ft 263 kts 34°
2026-05-04 14:28 2.08002 102.16973 4275 ft 263 kts 22°
2026-05-04 14:28 2.08848 102.17250 4258 ft 250 kts
2026-05-04 14:29 2.10482 102.16919 4611 ft 248 kts 322°
2026-05-04 14:29 2.11650 102.15645 4771 ft 254 kts 304°
2026-05-04 14:30 2.12160 102.14924 4684 ft 253 kts 306°
2026-05-04 14:30 2.12696 102.14241 4660 ft 247 kts 310°
2026-05-04 14:30 2.13842 102.12958 4177 ft 250 kts 312°
2026-05-04 14:31 2.14423 102.12321 4074 ft 245 kts 311°
2026-05-04 14:31 2.15534 102.11044 3670 ft 246 kts 309°
2026-05-04 14:32 2.16625 102.09740 3323 ft 245 kts 309°
2026-05-04 14:32 2.17178 102.09090 3145 ft 245 kts 310°
2026-05-04 14:32 2.17729 102.08448 3017 ft 242 kts 310°
2026-05-04 14:32 2.18274 102.07813 2913 ft 238 kts 310°
2026-05-04 14:33 2.18803 102.07192 2978 ft 234 kts 310°
2026-05-04 14:33 2.19338 102.06564 3142 ft 237 kts 310°
2026-05-04 14:33 2.19862 102.05951 3175 ft 228 kts 310°
2026-05-04 14:33 2.20375 102.05354 3044 ft 224 kts 310°
2026-05-04 14:34 2.20875 102.04774 3036 ft 215 kts 310°
2026-05-04 14:34 2.21356 102.04218 2964 ft 210 kts 310°
2026-05-04 14:34 2.21831 102.03661 2786 ft 211 kts 310°
2026-05-04 14:34 2.22311 102.03107 2615 ft 210 kts 314°
2026-05-04 14:35 2.22876 102.02647 2411 ft 210 kts 332°
2026-05-04 14:35 2.23553 102.02408 2343 ft 204 kts 353°
2026-05-04 14:35 2.24249 102.02329 2533 ft 202 kts 351°
2026-05-04 14:35 2.24958 102.02177 2667 ft 216 kts 342°
2026-05-04 14:36 2.25649 102.01888 2526 ft 219 kts 330°
2026-05-04 14:36 2.26282 102.01488 2487 ft 210 kts 323°
2026-05-04 14:36 2.26863 102.01069 2576 ft 207 kts 324°
2026-05-04 14:36 2.27475 102.00651 2520 ft 215 kts 327°
2026-05-04 14:37 2.28104 102.00269 2533 ft 207 kts 329°
2026-05-04 14:37 2.28727 101.99900 2535 ft 211 kts 325°
2026-05-04 14:37 2.29307 101.99448 2544 ft 212 kts 316°
2026-05-04 14:37 2.29823 101.98928 2529 ft 210 kts 313°
2026-05-04 14:38 2.30331 101.98404 2534 ft 211 kts 315°
2026-05-04 14:38 2.30877 101.97912 2537 ft 211 kts 321°
2026-05-04 14:38 2.31470 101.97479 2529 ft 211 kts 326°
2026-05-04 14:38 2.32093 101.97089 2539 ft 211 kts 328°
2026-05-04 14:39 2.32715 101.96701 2541 ft 211 kts 326°
2026-05-04 14:39 2.33318 101.96282 2538 ft 211 kts 322°
2026-05-04 14:39 2.33895 101.95827 2530 ft 212 kts 320°
2026-05-04 14:40 2.35034 101.94900 2523 ft 211 kts 322°
2026-05-04 14:40 2.35626 101.94469 2526 ft 211 kts 324°
2026-05-04 14:40 2.36231 101.94057 2529 ft 210 kts 325°
2026-05-04 14:40 2.36839 101.93645 2526 ft 212 kts 324°
2026-05-04 14:41 2.37447 101.93208 2527 ft 218 kts 323°
2026-05-04 14:41 2.38053 101.92745 2527 ft 218 kts 321°
2026-05-04 14:41 2.39260 101.91815 2523 ft 220 kts 323°
2026-05-04 14:42 2.40507 101.90925 2528 ft 220 kts 324°
2026-05-04 14:42 2.41132 101.90481 2524 ft 221 kts 323°
2026-05-04 14:42 2.41749 101.90028 2527 ft 220 kts 322°
2026-05-04 14:43 2.42361 101.89565 2526 ft 220 kts 322°
2026-05-04 14:43 2.42971 101.89102 2518 ft 220 kts 322°
2026-05-04 14:43 2.43578 101.88653 2520 ft 220 kts 323°
2026-05-04 14:43 2.44206 101.88196 2528 ft 221 kts 323°
2026-05-04 14:44 2.44820 101.87753 2517 ft 220 kts 323°
2026-05-04 14:44 2.45434 101.87308 2521 ft 220 kts 323°
2026-05-04 14:44 2.46036 101.86865 2528 ft 220 kts 323°
2026-05-04 14:44 2.46650 101.86411 2523 ft 220 kts 323°
2026-05-04 14:45 2.47265 101.85952 2517 ft 221 kts 323°
2026-05-04 14:45 2.47880 101.85494 2520 ft 220 kts 323°
2026-05-04 14:45 2.48493 101.85042 2522 ft 215 kts 323°
2026-05-04 14:45 2.49086 101.84608 2504 ft 208 kts 323°
2026-05-04 14:46 2.49660 101.84192 2510 ft 200 kts 323°
2026-05-04 14:46 2.50214 101.83793 2508 ft 193 kts 323°
2026-05-04 14:46 2.50754 101.83400 2514 ft 193 kts 323°
2026-05-04 14:46 2.51294 101.82999 2523 ft 194 kts 322°
2026-05-04 14:47 2.51834 101.82594 2508 ft 195 kts 322°
2026-05-04 14:47 2.52377 101.82190 2520 ft 195 kts 323°
2026-05-04 14:47 2.52925 101.81791 2519 ft 194 kts 325°
2026-05-04 14:47 2.53498 101.81430 2516 ft 194 kts 330°
2026-05-04 14:48 2.54083 101.81092 2520 ft 195 kts 328°
2026-05-04 14:48 2.54656 101.80723 2505 ft 195 kts 324°